Date,TemperatureHighF,TemperatureAvgF,TemperatureLowF,DewpointHighF,DewpointAvgF,DewpointLowF,HumidityHigh,HumidityAvg,HumidityLow,PressureMaxIn,PressureMinIn,WindSpeedMaxMPH,WindSpeedAvgMPH,GustSpeedMaxMPH,PrecipitationSumIn
2013-8-1,76.8,66.7,63.3,69.3,62.5,59.6,93,87,72,29.53,29.33,5,0,5,0.00
2013-8-2,78.9,71.1,64.2,70.0,63.9,60.5,93,79,61,29.39,29.29,2,0,2,0.00
2013-8-3,79.3,69.2,62.4,67.2,62.0,57.4,86,78,64,29.39,29.29,3,0,3,0.00
2013-8-4,77.0,65.8,56.6,63.5,57.2,52.8,89,75,55,29.46,29.34,7,0,7,0.00
2013-8-5,74.3,64.1,53.4,57.4,52.2,49.6,89,67,46,29.55,29.45,7,0,7,0.00
2013-8-6,77.0,65.9,52.5,60.6,55.3,48.4,88,70,50,29.62,29.54,5,0,5,0.00
2013-8-7,75.0,68.3,60.0,64.9,60.9,55.7,87,77,70,29.64,29.54,9,1,9,0.00
2013-8-8,81.5,73.8,68.3,71.8,68.0,63.8,89,82,71,29.54,29.46,11,1,11,0.00
2013-8-9,77.9,72.9,70.5,75.8,70.5,67.8,94,92,86,29.49,29.27,5,0,5,0.00
2013-8-10,79.5,70.4,61.5,68.6,63.7,56.6,95,81,58,29.56,29.34,2,0,2,0.00
2013-8-11,76.1,66.1,54.5,61.6,57.6,50.9,90,75,59,29.63,29.49,4,0,4,0.00
2013-8-12,79.1,69.7,61.3,66.5,61.2,58.4,90,76,56,29.54,29.40,2,0,2,0.00
2013-8-13,71.7,68.0,64.7,68.7,64.8,61.3,93,90,84,29.41,29.16,1,0,1,0.00
2013-8-14,71.2,63.8,55.4,62.7,56.4,52.1,93,78,61,29.53,29.24,0,0,0,0.00
2013-8-15,73.0,62.4,52.5,59.8,54.4,49.3,90,76,55,29.64,29.52,0,0,0,0.00
2013-8-16,75.0,64.4,54.3,60.4,56.2,51.1,90,76,56,29.70,29.62,0,0,0,0.00
2013-8-17,76.4,65.7,56.1,64.3,58.3,52.7,92,78,54,29.80,29.70,0,0,0,0.00
2013-8-18,73.7,65.5,58.8,66.0,61.0,55.6,90,86,76,29.78,29.61,0,0,0,0.00
2013-8-19,76.2,69.1,60.6,67.4,63.2,58.3,92,82,71,29.61,29.50,0,0,0,0.00
2013-8-20,80.2,69.7,58.8,67.3,62.9,55.9,91,80,60,29.62,29.53,0,0,0,0.00
2013-8-21,82.5,71.1,60.6,69.8,64.0,57.7,92,79,60,29.68,29.52,0,0,0,0.00
2013-8-22,81.3,72.6,65.1,72.3,67.3,62.1,92,84,73,29.55,29.34,0,0,0,0.00
2013-8-23,76.1,69.8,61.1,68.0,60.7,53.5,89,74,56,29.64,29.36,0,0,0,0.00
2013-8-24,73.5,64.2,54.6,57.9,53.5,49.8,85,70,48,29.84,29.64,0,0,0,0.00
2013-8-25,77.7,65.3,52.5,63.3,56.5,48.7,89,74,55,29.89,29.69,0,0,0,0.00
2013-8-26,74.1,68.5,63.5,67.9,62.2,56.5,91,80,69,29.71,29.38,0,0,0,0.00
2013-8-27,78.6,71.7,67.2,70.0,67.5,64.8,95,87,73,29.41,29.32,0,0,0,0.00
2013-8-28,82.5,71.5,64.7,72.1,66.8,62.4,93,86,69,29.41,29.33,0,0,0,0.00
2013-8-29,76.1,70.0,66.0,69.0,66.0,63.5,93,88,76,29.53,29.40,0,0,0,0.00
2013-8-30,80.4,73.6,66.7,70.4,67.1,63.0,90,81,67,29.52,29.32,0,0,0,0.00
2013-8-31,81.1,75.0,70.5,74.4,70.1,67.3,90,85,79,29.33,29.25,0,0,0,0.00